When you browse on this site, cookies collect data to enhance your experience and personalize the content and advertising you see.
Visit our Privacy Policy to learn more. By continuing to use the site, you agree to this use of cookies and data.
  • In France
  • List of Countries
  • For 7 days
  • Water Temperature
  • Satellite Maps
  • Weather Map
  • Weather Widgets
  • user-avatar
    Login

    Hourly Weather Artashat

    Today, 19 January, Saturday

    Time Temperature Precipitation Wind Pressure Humidity
    00:00 -13°C° 0 mm 2 mps 598 mmHg 60%
    01:00 -13°C° 0 mm 2 mps 598 mmHg 59%
    02:00 -13°C° 0 mm 2 mps 597 mmHg 58%
    03:00 -13°C° 0 mm 2 mps 597 mmHg 57%
    04:00 -13°C° 0 mm 2 mps 597 mmHg 56%
    05:00 -13°C° 0 mm 2 mps 597 mmHg 56%
    06:00 -14°C° 0 mm 2 mps 597 mmHg 55%
    07:00 -13°C° 0 mm 2 mps 597 mmHg 54%
    08:00 -12°C° 0 mm 2 mps 598 mmHg 53%
    09:00 -10°C° 0 mm 2 mps 598 mmHg 52%
    10:00 -8°C° 0 mm 1 mps 598 mmHg 51%
    11:00 -7°C° 0 mm 1 mps 598 mmHg 49%
    12:00 -4°C° 0 mm 1 mps 598 mmHg 48%
    13:00 -5°C° 0 mm 0 mps 598 mmHg 49%
    14:00 -5°C° 0 mm 0 mps 598 mmHg 51%
    15:00 -4°C° 0 mm 0 mps 598 mmHg 52%
    16:00 -6°C° 0 mm 1 mps 598 mmHg 53%
    17:00 -7°C° 0 mm 1 mps 598 mmHg 54%
    18:00 -9°C° 0 mm 1 mps 597 mmHg 55%
    19:00 -9°C° 0 mm 1 mps 598 mmHg 52%
    20:00 -10°C° 0 mm 2 mps 598 mmHg 50%
    21:00 -12°C° 0 mm 2 mps 598 mmHg 47%
    22:00 -12°C° 0 mm 2 mps 598 mmHg 45%
    23:00 -12°C° 0 mm 2 mps 598 mmHg 43%

    Tomorrow, 20 January, Sunday

    Time Temperature Precipitation Wind Pressure Humidity
    00:00 -12°C° 0 mm 2 mps 598 mmHg 41%
    01:00 -12°C° 0 mm 2 mps 598 mmHg 39%
    02:00 -12°C° 0 mm 2 mps 598 mmHg 38%
    03:00 -13°C° 0 mm 2 mps 598 mmHg 37%
    04:00 -13°C° 0 mm 2 mps 598 mmHg 36%
    05:00 -13°C° 0 mm 2 mps 598 mmHg 36%
    06:00 -13°C° 0 mm 2 mps 598 mmHg 35%
    07:00 -10°C° 0 mm 1 mps 598 mmHg 36%
    08:00 -9°C° 0 mm 1 mps 599 mmHg 38%
    09:00 -9°C° 0 mm 1 mps 599 mmHg 39%
    10:00 -7°C° 0 mm 1 mps 599 mmHg 38%
    11:00 -6°C° 0 mm 1 mps 600 mmHg 37%
    12:00 -5°C° 0 mm 0 mps 600 mmHg 36%
    13:00 -5°C° 0 mm 0 mps 599 mmHg 39%
    14:00 -5°C° 0 mm 0 mps 599 mmHg 41%
    15:00 -4°C° 0 mm 1 mps 599 mmHg 44%
    16:00 -6°C° 0 mm 1 mps 599 mmHg 45%
    17:00 -8°C° 0 mm 1 mps 599 mmHg 45%
    18:00 -9°C° 0 mm 1 mps 598 mmHg 46%
    19:00 -9°C° 0 mm 1 mps 598 mmHg 46%
    20:00 -10°C° 0 mm 1 mps 599 mmHg 46%
    21:00 -12°C° 0 mm 2 mps 599 mmHg 46%
    22:00 -10°C° 0 mm 1 mps 599 mmHg 45%
    23:00 -10°C° 0 mm 1 mps 599 mmHg 45%

    Day after tomorrow, 21 January, Monday

    Time Temperature Precipitation Wind Pressure Humidity
    00:00 -10°C° 0 mm 1 mps 599 mmHg 44%
    01:00 -11°C° 0 mm 1 mps 599 mmHg 44%
    02:00 -11°C° 0 mm 1 mps 599 mmHg 44%
    03:00 -11°C° 0 mm 1 mps 599 mmHg 44%
    04:00 -11°C° 0 mm 1 mps 599 mmHg 44%
    05:00 -11°C° 0 mm 1 mps 598 mmHg 44%
    06:00 -11°C° 0 mm 1 mps 598 mmHg 44%
    07:00 -11°C° 0 mm 1 mps 598 mmHg 45%
    08:00 -10°C° 0 mm 1 mps 599 mmHg 45%
    09:00 -9°C° 0 mm 1 mps 599 mmHg 46%
    10:00 -8°C° 0 mm 1 mps 599 mmHg 45%
    11:00 -6°C° 0 mm 1 mps 599 mmHg 44%
    12:00 -5°C° 0 mm 0 mps 599 mmHg 43%
    13:00 -4°C° 0 mm 1 mps 599 mmHg 45%
    14:00 -4°C° 0 mm 1 mps 599 mmHg 47%
    15:00 -4°C° 0 mm 1 mps 598 mmHg 50%
    16:00 -6°C° 0 mm 1 mps 598 mmHg 51%
    17:00 -7°C° 0 mm 1 mps 598 mmHg 53%
    18:00 -9°C° 0 mm 1 mps 597 mmHg 54%
    19:00 -9°C° 0 mm 1 mps 597 mmHg 54%
    20:00 -9°C° 0 mm 1 mps 597 mmHg 54%
    21:00 -12°C° 0 mm 2 mps 597 mmHg 54%
    22:00 -12°C° 0 mm 2 mps 597 mmHg 53%
    23:00 -12°C° 0 mm 2 mps 597 mmHg 52%

    22 January, Tuesday

    Time Temperature Precipitation Wind Pressure Humidity
    00:00 -12°C° 0 mm 2 mps 597 mmHg 52%
    01:00 -13°C° 0 mm 2 mps 597 mmHg 52%
    02:00 -13°C° 0 mm 2 mps 597 mmHg 52%
    03:00 -13°C° 0 mm 2 mps 597 mmHg 52%
    04:00 -13°C° 0 mm 2 mps 597 mmHg 53%
    05:00 -13°C° 0 mm 2 mps 597 mmHg 54%
    06:00 -13°C° 0 mm 2 mps 596 mmHg 55%
    07:00 -12°C° 0 mm 2 mps 597 mmHg 55%
    08:00 -12°C° 0 mm 2 mps 597 mmHg 55%
    09:00 -10°C° 0 mm 2 mps 598 mmHg 56%
    10:00 -7°C° 0 mm 1 mps 598 mmHg 53%
    11:00 -6°C° 0 mm 1 mps 598 mmHg 51%
    12:00 -5°C° 0 mm 0 mps 598 mmHg 49%
    13:00 -4°C° 0 mm 0 mps 597 mmHg 50%
    14:00 -4°C° 0 mm 0 mps 597 mmHg 52%
    15:00 -4°C° 0 mm 0 mps 597 mmHg 54%
    16:00 -5°C° 0 mm 0 mps 597 mmHg 55%
    17:00 -6°C° 0 mm 1 mps 597 mmHg 57%
    18:00 -7°C° 0 mm 1 mps 597 mmHg 59%
    19:00 -8°C° 0 mm 1 mps 597 mmHg 59%
    20:00 -8°C° 0 mm 1 mps 597 mmHg 60%
    21:00 -9°C° 0 mm 1 mps 597 mmHg 60%
    22:00 -9°C° 0 mm 1 mps 597 mmHg 60%
    23:00 -9°C° 0 mm 1 mps 597 mmHg 60%

    23 January, Wednesday

    Time Temperature Precipitation Wind Pressure Humidity
    00:00 -9°C° 0 mm 1 mps 596 mmHg 60%
    01:00 -10°C° 0 mm 1 mps 596 mmHg 60%
    02:00 -10°C° 0 mm 1 mps 596 mmHg 60%
    03:00 -10°C° 0 mm 1 mps 596 mmHg 61%
    04:00 -10°C° 0 mm 1 mps 596 mmHg 62%
    05:00 -10°C° 0 mm 1 mps 596 mmHg 63%
    06:00 -10°C° 0 mm 1 mps 596 mmHg 64%
    07:00 -9°C° 0 mm 1 mps 597 mmHg 64%
    08:00 -8°C° 0 mm 1 mps 597 mmHg 64%
    09:00 -8°C° 0 mm 1 mps 598 mmHg 64%
    10:00 -6°C° 0 mm 1 mps 598 mmHg 62%
    11:00 -4°C° 0 mm 1 mps 598 mmHg 61%
    12:00 -3°C° 0 mm 1 mps 598 mmHg 59%
    13:00 -3°C° 0 mm 1 mps 598 mmHg 60%
    14:00 -3°C° 0 mm 1 mps 598 mmHg 62%
    15:00 -2°C° 0 mm 1 mps 598 mmHg 63%
    16:00 -4°C° 0 mm 1 mps 598 mmHg 65%
    17:00 -6°C° 0 mm 1 mps 598 mmHg 66%
    18:00 -7°C° 0 mm 1 mps 597 mmHg 68%
    19:00 -7°C° 0 mm 1 mps 598 mmHg 69%
    20:00 -7°C° 0 mm 1 mps 598 mmHg 69%
    21:00 -8°C° 0 mm 2 mps 598 mmHg 70%
    22:00 -8°C° 0 mm 1 mps 598 mmHg 70%
    23:00 -8°C° 0 mm 1 mps 598 mmHg 70%

    24 January, Thursday

    Time Temperature Precipitation Wind Pressure Humidity
    00:00 -8°C° 0 mm 1 mps 598 mmHg 71%
    01:00 -9°C° 0 mm 1 mps 598 mmHg 71%
    02:00 -9°C° 0 mm 1 mps 598 mmHg 71%
    03:00 -9°C° 0 mm 1 mps 598 mmHg 72%
    04:00 -9°C° 0 mm 1 mps 597 mmHg 72%
    05:00 -9°C° 0 mm 1 mps 597 mmHg 72%
    06:00 -9°C° 0 mm 1 mps 597 mmHg 73%
    07:00 -8°C° 0 mm 1 mps 598 mmHg 72%
    08:00 -8°C° 0 mm 1 mps 598 mmHg 70%
    09:00 -7°C° 0 mm 1 mps 599 mmHg 69%
    10:00 -6°C° 0 mm 1 mps 599 mmHg 67%
    11:00 -3°C° 0 mm 1 mps 599 mmHg 65%
    12:00 -2°C° 0 mm 1 mps 599 mmHg 63%
    13:00 -2°C° 0 mm 1 mps 598 mmHg 64%
    14:00 -1°C° 0 mm 1 mps 598 mmHg 65%
    15:00 -3°C° 0 mm 2 mps 598 mmHg 66%
    16:00 -4°C° 0.1 mm 2 mps 598 mmHg 68%
    17:00 -5°C° 0.1 mm 2 mps 598 mmHg 70%
    18:00 -6°C° 0.1 mm 2 mps 597 mmHg 72%
    19:00 -6°C° 0.1 mm 2 mps 597 mmHg 72%
    20:00 -6°C° 0.1 mm 2 mps 597 mmHg 72%
    21:00 -7°C° 0.1 mm 2 mps 597 mmHg 71%
    22:00 -7°C° 0.1 mm 2 mps 597 mmHg 71%
    23:00 -7°C° 0.1 mm 2 mps 597 mmHg 71%
    Show more